Zurück zum Katalog

SL-16 DEB

AktivLEO
NORAD 18527·DEBRIS·🇷🇺 Russia

Gestartet Mar 18, 1987 von Baikonur Cosmodrome

Loading…

Nächste Überflüge (nächste 24 Stunden)

TLE

AktuellSource: Space-Track

Epoche: Sep 14, 2026, 14:07 UTC

1 18527U 87027E   26257.58858090  .00000017  00000-0  53406-4 0  9992
2 18527  70.9954 107.5518 0193189 142.2437 219.2404 13.75826415981495

Verfolge SL-16 DEB in Echtzeit mit AllMySat

Download on the App Store